Torna al catalogo

INTELSAT 4A-F2

AttivoComunicazioniGEO
NORAD 8620·PAYLOAD· XX

Lanciato Jan 29, 1976 da Cape Canaveral Space Force Station

Loading…

TLE

AggiornatoSource: Space-Track

Epoca: Sep 14, 2026, 08:37 UTC

1 08620U 76010A   26257.35905172 -.00000195  00000-0  00000-0 0  9990
2 08620   7.7133 303.2969 0007243 298.7628 229.1683  0.99694106621508

Traccia INTELSAT 4A-F2 in tempo reale con AllMySat

Download on the App Store